STARLINK-1234, 45190

Orbit data source: Space-Track

STARLINK-1234, 45190 is a payload satellite owned by SpaceX/Seattle (US) in LEO that was launched on Mon, 17 Feb 2020 UTC via an FALCON 9 launch vehicle from the Air Force Eastern Test Range (AFETR). Payload-class satellites include a variety of spacecraft equipped with specific instruments for various scientific and technological missions. These include communications satellites like Starlink; space stations such as the ISS; scientific satellites like the Hubble; Earth observation satellites from companies like Planet Labs, Umbra, and HawkEye 360; GPS; miniature CubeSats for education and research; and military/defense satellites.

Loading next visibility...
Identifier
45190, 2020-012N
Orbit
LEO
Country
Flag of USUS
Related business
Manufacturer
SpaceX/Seattle
Mission
Operational Commercial Communications
Bus & Motor
STARLINK, Unknown motor
Mass
260 kg wet, ~248 kg dry
Launch date (UTC)
2020-02-17 (6 years ago)
Launch vehicle
FALCON 9
Launch site
Air Force Eastern Test Range (AFETR)
Object type
Payload
Rocket body
Debris
Shape & HBR
Box + 1 Pan, 10.1 m
Radar Cross Section
13.562 m², Large (>1 m²)

Expand to show TLE details & history
Last TLE update: 17 hours ago

TLE from 17 hours ago
0 STARLINK-1234
1 45190U 20012N   25291.33336806  .01097442  00000-0  40964-1 0  9996
2 45190  53.0546 285.1274 0001324  92.7699  52.1826 15.24325607  5896
Epoch: 2025-10-18T08:00Z
TLE epoch observation values (Epoch: 2025-10-18T08:00:03.000Z)
Latitude
27.39151°
Longitude
-64.75248°
Altitude
493.544 km
Speed
7.622 km/s
True Right ascension
05h 29m 18s
True Declination
27° 14' 45"
Sunlit
Object was in full shadow at epoch
Visualization orbit readout
Latitude
Unknown
Longitude
Unknown
Altitude
Unknown
Speed
Unknown
Apparent Right ascension
Unknown
Apparent Declination
Unknown
Sunlit
N/A
Visualization observer readout
Local Sidereal Time
19:53:55
Azimuth
Unknown
Elevation
Unknown
Doppler factor
Unknown
Orbital elements
Apogee altitude
493.994 km
Perigee altitude
492.174 km
Semi-major axis
6,871.221 km
Eccentricity
0.00013
Inclination
53.0546°
RAAN
285.1274°
Arg. of periapsis
92.7699°
True anomaly
52.19459°
Mean anomaly
52.1826°
Eccentric anomaly
52.18859°
Mean motion
3.81059 °/min
Orbital period
94.47 mins
BSTAR
0.040964
Loading maneuver chart data...
Computing Atmospheric mass density...

Documentation

Showing up to 5 results
|